Tracking 32420 objects as of 8-Dec-2025
HD Live streaming from Space Station
objects crossing your sky now

STARLINK-31519

Track STARLINK-31519 now!
10-day predictions
STARLINK-31519 is classified as:


NORAD ID: 59546
Int'l Code: 2024-074N
Perigee: 489.5 km
Apogee: 490.8 km
Inclination: 43.0 °
Period: 94.3 minutes
Semi major axis: 6861 km
RCS: Unknown
Launch date: April 18, 2024
Source: United States (US)
Launch site: AIR FORCE EASTERN TEST RANGE (AFETR)
Your satellite tracking list
Your tracking list is empty




NASA's NSSDC Master Catalog

Two Line Element Set (TLE):
1 59546U 24074N   25341.72442975  .00000423  00000-0  24894-4 0  9991
2 59546  43.0001 142.5292 0000877 246.2811 113.7949 15.27592215 91957
Source of the keplerian elements: AFSPC